EW1000 Weather Reports


time (UTC)temp
C
wind
direction
speed
KPH
gust
KPH
rain 1hr
cm
rain 24hr
cm
rain mn
cm
humidity
%
barometer
mb
20260507160040 28 111 8.0 17.7 0.00 0.00 0.00 54 1014.7
20260507154541 28 99 6.4 16.1 0.00 0.00 0.00 53 1015.0
20260507153044 27 142 9.7 19.3 0.00 0.00 0.00 56 1015.3
20260507151532 27 101 4.8 16.1 0.00 0.00 0.00 57 1015.3
20260507150032 27 148 4.8 11.3 0.00 0.00 0.00 58 1015.5
20260507144529 26 190 3.2 14.5 0.00 0.00 0.00 59 1015.6
20260507143025 26 117 4.8 20.9 0.00 0.00 0.00 63 1015.7
20260507141525 25 70 3.2 16.1 0.00 0.00 0.00 66 1015.9
20260507140025 25 333 6.4 17.7 0.00 0.00 0.00 64 1016.1
20260507134523 25 160 3.2 12.9 0.00 0.00 0.00 66 1016.0
20260507133022 25 305 3.2 14.5 0.00 0.00 0.00 66 1016.2
20260507131521 25 142 3.2 11.3 0.00 0.00 0.00 66 1016.2
20260507130017 25 53 8.0 16.1 0.00 0.00 0.00 68 1016.1
20260507124517 24 125 3.2 8.0 0.00 0.00 0.00 70 1016.1
20260507123012 23 109 4.8 12.9 0.00 0.00 0.00 72 1016.2
20260507121508 23 157 4.8 9.7 0.00 0.00 0.00 75 1016.1
20260507120006 23 85 4.8 9.7 0.00 0.00 0.00 77 1016.1
20260507114503 22 151 3.2 6.4 0.00 0.00 0.00 80 1016.1
20260507113002 22 128 1.6 11.3 0.00 0.00 0.00 82 1015.9
20260507111503 21 109 1.6 4.8 0.00 0.00 0.00 83 1015.8
20260507110002 21 102 3.2 8.0 0.00 0.00 0.00 84 1015.7
20260507104559 -17 0.0 0.0 0.00 0.00 0.00 1015.5
20260507103055 -17 0.0 0.0 0.00 0.00 0.00 1015.4
20260507101552 -17 0.0 0.0 0.00 0.00 0.00 1015.4
20260507100053 -17 0.0 0.0 0.00 0.00 0.00 1015.3
20260507094554 -17 0.0 0.0 0.00 0.00 0.00 1015.1
20260507093045 -17 0.0 0.0 0.00 0.00 0.00 1015.0
20260507091541 -17 0.0 0.0 0.00 0.00 0.00 1014.8
20260507090041 -17 0.0 0.0 0.00 0.00 0.00 1014.5
20260507084533 -17 0.0 0.0 0.00 0.00 0.00 1014.4
20260507083037 -17 0.0 0.0 0.00 0.00 0.00 1014.3
20260507081528 -17 0.0 0.0 0.00 0.00 0.00 1014.3
20260507080019 -17 0.0 0.0 0.00 0.00 0.00 1014.4
20260507074526 -17 0.0 0.0 0.00 0.00 0.00 1014.4
20260507073010 -17 0.0 0.0 0.00 0.00 0.00 1014.4
20260507071508 -17 0.0 0.0 0.00 0.00 0.00 1014.5
20260507070004 -17 0.0 0.0 0.00 0.00 0.00 1014.6
20260507064600 21 132 0.0 6.4 0.00 0.00 0.00 83 1014.7
20260507063059 22 105 3.2 6.4 0.00 0.00 0.00 83 1014.9
20260507061554 22 102 1.6 6.4 0.00 0.00 0.00 83 1015.0
20260507060052 22 145 1.6 8.0 0.00 0.00 0.00 83 1015.2
20260507054602 22 108 4.8 9.7 0.00 0.00 0.00 83 1015.3
20260507053048 22 125 3.2 11.3 0.00 0.00 0.00 83 1015.5
20260507051546 22 165 4.8 11.3 0.00 0.00 0.00 83 1015.5
20260507050044 22 102 1.6 8.0 0.00 0.00 0.00 83 1015.7
20260507044543 22 153 1.6 9.7 0.00 0.00 0.00 83 1015.8
20260507043041 22 96 3.2 11.3 0.00 0.00 0.00 83 1016.0
20260507041539 22 113 1.6 9.7 0.00 0.00 0.00 83 1015.9
20260507040043 22 150 1.6 12.9 0.00 0.00 0.00 83 1016.0
20260507034535 22 123 1.6 12.9 0.00 0.00 0.00 84 1016.2
20260507033036 22 109 4.8 9.7 0.00 0.00 0.00 84 1016.3
20260507031530 22 120 4.8 12.9 0.00 0.00 0.00 85 1016.4
20260507030030 22 139 4.8 11.3 0.00 0.00 0.00 84 1016.2
20260507024526 22 127 0.0 9.7 0.00 0.00 0.00 84 1016.2
20260507023028 22 117 8.0 14.5 0.00 0.00 0.00 84 1016.1
20260507021523 23 120 6.4 11.3 0.00 0.00 0.00 83 1016.2
20260507020025 23 70 6.4 11.3 0.00 0.00 0.00 82 1016.1
20260507014521 23 108 6.4 12.9 0.00 0.00 0.00 82 1016.0
20260507013028 23 106 6.4 16.1 0.00 0.00 0.00 83 1015.8
20260507011533 23 115 3.2 12.9 0.00 0.00 0.00 82 1015.7
20260507010019 23 107 3.2 12.9 0.00 0.00 0.00 82 1015.5
20260507004518 23 107 8.0 14.5 0.00 0.00 0.00 81 1015.3
20260507003019 24 95 6.4 12.9 0.00 0.00 0.00 78 1015.1
20260507001516 25 145 3.2 12.9 0.00 0.00 0.00 77 1014.9
20260507000016 25 125 6.4 11.3 0.00 0.00 0.00 77 1014.7
20260506234515 25 61 8.0 17.7 0.00 0.00 0.00 76 1014.5
20260506233015 25 148 6.4 19.3 0.00 0.00 0.00 75 1014.4
20260506231514 26 128 6.4 14.5 0.00 0.00 0.00 73 1014.1
20260506230013 26 188 6.4 14.5 0.00 0.00 0.00 71 1013.8
20260506224523 27 107 1.6 14.5 0.00 0.00 0.00 69 1013.5
20260506223012 27 70 4.8 14.5 0.00 0.00 0.00 65 1013.3
20260506221511 27 83 11.3 20.9 0.00 0.00 0.00 62 1013.1
20260506220010 27 70 8.0 12.9 0.00 0.00 0.00 60 1013.1
20260506214509 28 120 4.8 14.5 0.00 0.00 0.00 59 1013.0
20260506213013 28 157 4.8 17.7 0.00 0.00 0.00 58 1012.8
20260506211511 28 116 3.2 16.1 0.00 0.00 0.00 56 1012.5
20260506210007 28 131 6.4 19.3 0.00 0.00 0.00 56 1012.4
20260506204507 29 104 6.4 20.9 0.00 0.00 0.00 53 1012.2
20260506203005 29 128 3.2 12.9 0.00 0.00 0.00 52 1012.3
20260506201503 28 159 8.0 16.1 0.00 0.00 0.00 53 1012.5
20260506200001 29 125 8.0 17.7 0.00 0.00 0.00 53 1012.7
20260506194601 29 53 8.0 17.7 0.00 0.00 0.00 53 1012.7